Regional Weather Roundup
Issued by NWS

Home | Current Version | Previous Version | Text Only | Print | Product List | Glossary On
Versions: 1 2 3 4 5 6 7 8 9 10 11 12 13 14 15 16 17 18 19 20 21 22 23 24 25 26 27 28 29 30 31 32 33 34 35 36 37 38 39 40 41 42 43 44 45 46 47 48 49 50
133
ASUS44 KLIX 181310
RWRLA
LOUISIANA WEATHER ROUNDUP
NATIONAL WEATHER SERVICE NEW ORLEANS LA
700 AM CST THU DEC 18 2014

NOTE: "FAIR" INDICATES FEW OR NO CLOUDS BELOW 12,000 FEET WITH NO
      SIGNIFICANT WEATHER AND/OR OBSTRUCTIONS TO VISIBILITY.
      SKY/WX - SKY CONDITION AND SIGNIFICANT WEATHER.
      TMP - AIR TEMPERATURE.    DP   - DEWPOINT TEMPERATURE.
      RH  - RELATIVE HUMIDITY.  PRES - PRESSURE.
      HX  - HEAT INDEX.         WCI  - WIND CHILL INDEX.

*  THESE STATIONS ARE NOT NWS OR FAA STATIONS AND ARE NOT UNDER
   NWS QUALITY CONTROL.

LAZ040-048-061>063-065-066-069-181400-
SOUTHEAST LOUISIANA

CITY           SKY/WX    TMP DP  RH WIND       PRES   REMARKS
N.O. AUDUBON     N/A     54  50  86 MISG        N/A
N.O. INTL ARPT CLOUDY    53  47  79 E7        30.16S
N.O. LAKEFRONT MOCLDY    54  48  80 E12       30.18R
N.O. DOWNTOWN* FAIR      54  46  76 NE6       30.18R
SLIDELL        PTCLDY    45  41  86 N3        30.19R
BATON ROUGE    MOCLDY    48  44  86 E7        30.15R
BOOTHVILLE     PTCLDY    55  52  89 NE5       30.18R
BELLE CHASSE   MOCLDY    47  44  90 NE3       30.17R
BOGALUSA*        N/A     46  42  86 CALM      30.21S
GALLIANO*      CLOUDY    54  53  95 MISG      30.17S
NEW ROADS*     FAIR      48  44  85 CALM      30.15S
GONZALES*      PTSUNNY   49  49 100 CALM      30.16R
HAMMOND*       NOT AVBL
HOUMA*         MOCLDY    50  48  93 E5        30.15S
PORT FOURCHON* CLOUDY    59  54  82 NE7       30.20R

$$

LAZ041-044-053-054-181400-
SOUTHWEST LOUISIANA

CITY           SKY/WX    TMP DP  RH WIND       PRES   REMARKS
LAKE CHARLES   MOCLDY    53  50  89 E6        30.09R
LAFAYETTE      CLOUDY    51  44  77 VRB3      30.13R
PATTERSON      MOCLDY    52  45  76 E6        30.14S
SALT POINT       N/A     56  49  77 E5        30.12R
NEW IBERIA     MOCLDY    52  46  80 E5        30.13R
CHENAULT AIRPK MOCLDY    52  48  87 E6        30.09S

$$

LAZ027-028-181400-
CENTRAL LOUISIANA

CITY           SKY/WX    TMP DP  RH WIND       PRES   REMARKS
FORT POLK      CLOUDY    53  45  75 SE7       30.10S
ALEXANDRIA INT CLOUDY    51  43  74 E6        30.12R
ALEXANDRIA     CLOUDY    51  43  74 E3        30.14R

$$

LAZ001-002-181400-
NORTHWEST LOUISIANA

CITY           SKY/WX    TMP DP  RH WIND       PRES   REMARKS
SHREVEPORT     LGT RAIN  44  42  93 NE8       30.17R
BARKSDALE AFB  NOT AVBL
DTN SHREVEPORT LGT RAIN  43  40  89 E6        30.18R

$$

LAZ014-016-181400-
NORTHEAST LOUISIANA

CITY           SKY/WX    TMP DP  RH WIND       PRES   REMARKS
MONROE         LGT RAIN  44  42  93 NE7       30.20R FOG
TALLULAH       CLOUDY    47  41  80 E9        30.17F

$$




USA.gov is the U.S. government's official web portal to all federal, state and local government web resources and services.